sat.trackr.live / text

‹ back to catalog

STARLINK-34369

NORAD 64297 · 2025-123G

PAYLOAD ACTIVE UNKNOWN

§ Identity

Operator
Country
US
Launch date
2025-06-08
Launch site
AFWTR
Launch vehicle
Mass (kg)
RCS (m²)

Purposes: comms

External: N2YO · Heavens-Above · Gunter

§ Orbital elements

Epoch: 2026-05-25T00:58:17.140224Z

Period
96.11 min
Inclination
70.0017°
Eccentricity
0.0002952
Mean motion
14.98352272 rev/d
Perigee alt
569.9 km
Apogee alt
574.0 km
Semi-major
6,950.1 km
B*
3.1908e-4
RAAN
2.0079°
Arg perigee
262.1685°
Mean anomaly
97.9139°
Rev number
5,305

§ Raw data

STARLINK-343691 64297U 25123G   26145.04047616  .00003718  00000+0  31908-3 0  99992 64297  70.0017   2.0079 0002952 262.1685  97.9139 14.98352272 53055

JSON: /api/v1/satellites/64297 · /tle

For live sub-satellite position, see the globe view (requires WebGL).

§ Visibility from observer

Set your observer location to see the next 7 days of passes ≥ 10°. The values pass through the URL so the page stays shareable.

No JS? Fill the form by hand. The geolocation button needs JavaScript.